Location: Boleita
(10.4833°N, 66.8167°W)
Time: 01:42:02
(UTC+00:00)

Centaur AC-112 - Pass Details

Date: 08 November 2025
Orbit: 277 x 18057 km, 26.7° (Epoch: 09 December)

Event Time Altitude Azimuth Distance (km) Brightness Sun altitude
Exits shadow 09:14:56 26° 259° (W) 1,213 3.5 -16.3°
Maximum altitude 09:17:03 72° 339° (NNW) 918 3.2 -15.8°
Drops below altitude 10° 09:30:05 10° 63° (ENE) 6,221 8.4 -12.7°
Sets 09:40:51 0° 65° (ENE) 10,076 9.6 -10.1°
